Humidity-temperature Sensor

Selected Measurement Type: Relative Humidity

 
Relative Humidity [%]     6 entries per hour
Showing data from 8/23/2022 (00:00:00 Z) to 8/20/2022 (00:01:00 Z)
Previous Next [ Day | 3-Days | 7-Days ]
First Last
Prev [ Day | 3-Days | 7-Days ] Next
First Last

Start Time:     :
End Time:     :     
Time (in GMT) :00 :50 :40 :30 :20 :10
Previous Next [ Day | 3-Days | 7-Days ]
First Last
Prev [ Day | 3-Days | 7-Days ] Next
First Last


123 => good data
MM => data is determined as missing
-- => data not received/configured
Back to Top Back to Top
8/23/2022 00:00 to 23:10 93.04 94.05 94.42 95.18 95.36 95.46
8/22/2022 23:00 to 22:10 95.85 95.53 95.40 95.28 94.79 94.27
8/22/2022 22:00 to 21:10 93.70 92.57 91.64 91.17 91.46 91.33
8/22/2022 21:00 to 20:10 91.13 90.98 91.00 91.58 91.83 92.42
8/22/2022 20:00 to 19:10 92.59 92.96 92.94 93.29 93.80 94.13
8/22/2022 19:00 to 18:10 94.66 94.58 94.54 94.19 93.92 93.70
8/22/2022 18:00 to 17:10 94.13 94.44 94.70 94.77 94.58 94.54
8/22/2022 17:00 to 16:10 94.89 95.30 95.85 95.90 95.48 94.74
8/22/2022 16:00 to 15:10 93.72 93.66 93.59 93.74 93.12 93.22
8/22/2022 15:00 to 14:10 93.43 93.80 94.11 93.84 94.00 94.29
8/22/2022 14:00 to 13:10 94.44 94.79 95.09 95.16 95.22 95.34
8/22/2022 13:00 to 12:10 95.42 95.53 95.46 95.07 94.99 94.99
8/22/2022 12:00 to 11:10 95.24 95.18 95.53 95.85 95.44 94.99
8/22/2022 11:00 to 10:10 93.76 93.27 92.98 93.14 93.18 93.39
8/22/2022 10:00 to 9:10 94.07 94.70 94.89 94.72 94.11 93.45
8/22/2022 09:00 to 8:10 93.31 92.34 92.24 92.63 92.83 93.20
8/22/2022 08:00 to 7:10 93.57 93.57 93.70 93.68 93.76 93.57
8/22/2022 07:00 to 6:10 93.59 93.47 93.53 93.29 93.10 93.00
8/22/2022 06:00 to 5:10 93.06 92.98 92.87 92.71 92.87 93.12
8/22/2022 05:00 to 4:10 93.14 93.29 93.39 93.66 93.90 93.84
8/22/2022 04:00 to 3:10 93.59 93.37 93.39 93.22 93.64 93.84
8/22/2022 03:00 to 2:10 93.98 94.19 93.84 93.51 93.24 93.02
8/22/2022 02:00 to 1:10 93.08 93.47 93.27 92.77 92.28 90.78
8/22/2022 01:00 to 0:10 90.04 90.51 90.59 90.88 91.33 92.09
8/22/2022 00:00 to 23:10 92.96 93.70 94.64 95.32 95.53 95.87
8/21/2022 23:00 to 22:10 95.92 95.63 95.55 95.48 95.14 94.62
8/21/2022 22:00 to 21:10 93.94 93.45 93.80 93.94 93.86 93.14
8/21/2022 21:00 to 20:10 92.32 91.44 90.90 91.40 92.07 92.77
8/21/2022 20:00 to 19:10 93.06 93.00 92.85 92.75 92.73 92.75
8/21/2022 19:00 to 18:10 93.04 93.41 93.74 94.09 94.29 93.66
8/21/2022 18:00 to 17:10 92.24 90.43 89.81 89.98 89.87 90.06
8/21/2022 17:00 to 16:10 90.51 90.16 90.10 89.77 89.71 90.24
8/21/2022 16:00 to 15:10 91.17 92.28 93.29 94.15 94.64 94.70
8/21/2022 15:00 to 14:10 94.93 94.33 93.70 93.59 93.84 94.13
8/21/2022 14:00 to 13:10 94.81 95.53 95.71 95.26 94.93 94.62
8/21/2022 13:00 to 12:10 94.15 94.52 94.62 94.87 94.62 94.50
8/21/2022 12:00 to 11:10 94.17 94.19 94.25 94.25 94.35 93.88
8/21/2022 11:00 to 10:10 93.16 92.18 91.83 91.46 91.44 91.68
8/21/2022 10:00 to 9:10 92.11 92.26 92.75 93.24 93.06 92.28
8/21/2022 09:00 to 8:10 92.24 92.57 92.94 92.87 92.63 92.61
8/21/2022 08:00 to 7:10 92.94 93.57 93.41 93.68 94.31 94.62
8/21/2022 07:00 to 6:10 94.56 94.29 94.09 93.76 93.43 93.43
8/21/2022 06:00 to 5:10 93.10 93.12 93.24 92.75 93.35 93.33
8/21/2022 05:00 to 4:10 93.04 93.51 93.78 93.24 93.24 92.79
8/21/2022 04:00 to 3:10 92.26 92.05 92.22 92.24 91.95 91.83
8/21/2022 03:00 to 2:10 92.24 92.94 92.69 92.73 91.97 91.40
8/21/2022 02:00 to 1:10 91.68 91.85 91.60 90.90 90.98 91.35
8/21/2022 01:00 to 0:10 91.58 91.44 91.03 91.17 91.37 91.70
8/21/2022 00:00 to 23:10 91.13 90.41 90.53 90.72 91.17 91.42
8/20/2022 23:00 to 22:10 92.01 92.28 91.79 91.77 91.72 91.91
8/20/2022 22:00 to 21:10 92.30 92.48 92.77 93.41 93.90 94.00
8/20/2022 21:00 to 20:10 93.31 92.30 92.22 93.49 94.66 95.42
8/20/2022 20:00 to 19:10 95.18 94.35 93.29 94.17 94.68 95.09
8/20/2022 19:00 to 18:10 95.36 95.59 96.00 96.20 96.61 96.88
8/20/2022 18:00 to 17:10 97.15 97.40 97.74 98.38 98.79 99.33
8/20/2022 17:00 to 16:10 99.53 99.41 99.22 98.67 98.09 97.79
8/20/2022 16:00 to 15:10 96.88 96.33 95.01 93.37 93.24 92.98
8/20/2022 15:00 to 14:10 93.02 93.41 94.60 95.34 95.40 95.07
8/20/2022 14:00 to 13:10 94.50 93.57 93.37 94.03 94.72 94.95
8/20/2022 13:00 to 12:10 95.34 95.48 95.73 96.08 95.67 94.42
8/20/2022 12:00 to 11:10 94.66 95.05 95.57 96.22 96.37 96.51
8/20/2022 11:00 to 10:10 96.22 96.41 96.80 97.01 96.57 95.53
8/20/2022 10:00 to 9:10 94.81 94.03 93.80 94.09 94.15 94.95
8/20/2022 09:00 to 8:10 94.99 94.66 95.51 96.20 96.92 97.60
8/20/2022 08:00 to 7:10 97.95 97.99 97.64 97.58 97.83 98.03
8/20/2022 07:00 to 6:10 98.22 98.30 98.67 98.53 98.69 98.69
8/20/2022 06:00 to 5:10 98.55 98.73 98.79 99.20 98.83 98.42
8/20/2022 05:00 to 4:10 98.09 98.14 98.71 99.10 99.31 99.06
8/20/2022 04:00 to 3:10 99.14 99.12 99.31 99.59 99.90 99.88
8/20/2022 03:00 to 2:10 100.03 100.21 100.15 100.19 100.40 100.50
8/20/2022 02:00 to 1:10 100.87 100.91 100.91 100.91 100.91 100.91
8/20/2022 01:00 to 0:10 100.91 100.91 100.91 100.91 100.91 100.91